Showing default

HULIANWANG DIGUI-07, 62329

Orbit data source: Space-Track

HULIANWANG DIGUI-07, 62329 is a payload satellite owned by Zhongguo Xingwang (CN) in LEO that was launched on Mon, 16 Dec 2024 UTC via a CHANG ZHENG 5B/YZ-2 launch vehicle from the Wenchang Satellite Launch Center (WSC). Payload-class satellites include a variety of spacecraft equipped with specific instruments for various scientific and technological missions. These include communications satellites like Starlink; space stations such as the ISS; scientific satellites like the Hubble; Earth observation satellites from companies like Planet Labs, Umbra, and HawkEye 360; GPS; miniature CubeSats for education and research; and military/defense satellites.

Loading next visibility...
Identifier
62329, 2024-240G
Orbit
LEO
Country
Flag of CNCN / PRC
Related business
Manufacturer
CAST?
Mission
Operational Civil Communications
Bus & Motor
GUOWANG C, Unknown motor
Mass
~800 kg wet, ~800 kg dry
Launch date (UTC)
2024-12-16 (10 months ago)
Launch vehicle
CHANG ZHENG 5B/YZ-2
Launch site
Wenchang Satellite Launch Center (WSC)
Object type
Payload
Rocket body
Debris
Shape & HBR
Box + 2 Pan, 5.0 m
Radar Cross Section
5.935 m², Large (>1 m²)

Expand to show TLE details & history
Last TLE update: 3 hours ago

TLE from 3 hours ago
0 HULIANWANG DIGUI-07
1 62329U 24240G   25291.35031249  .00000047  00000-0  75463-4 0  9990
2 62329  86.4914  64.6429 0001756 106.1762 253.9566 13.24414568 40636
Epoch: 2025-10-18T08:24Z
TLE epoch observation values (Epoch: 2025-10-18T08:24:26.999Z)
Latitude
0.00006°
Longitude
-88.55218°
Altitude
1,171.166 km
Speed
7.268 km/s
True Right ascension
04h 18m 34s
True Declination
0° 00' 00"
Sunlit
Object was in full shadow at epoch
Visualization orbit readout
Latitude
Unknown
Longitude
Unknown
Altitude
Unknown
Speed
Unknown
Apparent Right ascension
Unknown
Apparent Declination
Unknown
Sunlit
N/A
Visualization observer readout
Local Sidereal Time
06:03:38
Azimuth
Unknown
Elevation
Unknown
Doppler factor
Unknown
Orbital elements
Apogee altitude
1,166.349 km
Perigee altitude
1,163.7 km
Semi-major axis
7,543.162 km
Eccentricity
0.00018
Inclination
86.4914°
RAAN
64.6429°
Arg. of periapsis
106.1762°
True anomaly
253.93726°
Mean anomaly
253.9566°
Eccentric anomaly
253.94693°
Mean motion
3.31294 °/min
Orbital period
108.66 mins
BSTAR
0.000075463
Loading maneuver chart data...
Computing Atmospheric mass density...
Loading historical data...
Loading historical data...
Loading historical data...
Loading historical data...
Loading historical data...
Loading historical data...
Loading historical data...

Documentation

Showing up to 5 results
|